Tracking 23645 objects as of 21-Sep-2021
HD Live streaming from Space Station
objects crossing your sky now

STARLINK-1306

Track STARLINK-1306 now!
10-day predictions
STARLINK-1306 is classified as:


NORAD ID: 45362
Int'l Code: 2020-019C
Perigee: 553.8 km
Apogee: 554.8 km
Inclination: 53.1 °
Period: 95.6 minutes
Semi major axis: 6925 km
RCS: Unknown
Launch date: March 18, 2020
Source: United States (US)
Launch site: AIR FORCE EASTERN TEST RANGE (AFETR)
aabbcc
Your satellite tracking list
Your tracking list is empty




NASA's NSSDC Master Catalog

Two Line Element Set (TLE):
1 45362U 20019C   21264.43058625  .00000963  00000-0  83506-4 0  9994
2 45362  53.0541 285.1395 0000708  85.4312 274.6758 15.06406733 84007
Source of the keplerian elements: AFSPC